When you browse on this site, cookies collect data to enhance your experience and personalize the content and advertising you see.
Visit our Privacy Policy to learn more. By continuing to use the site, you agree to this use of cookies and data.
  • In Austria
  • List of Countries
  • For 7 days
  • Water Temperature
  • Weather Map
  • News
  • Weather Widgets
  • user-avatar
    Login

    Hourly Weather Voronino

    Today, 25 August, Sunday

    Time Temperature Precipitation Wind Pressure Humidity
    00:00 +15°C° 0 mm 1 mps 758 mmHg 80%
    01:00 +14°C° 0 mm 1 mps 758 mmHg 82%
    02:00 +14°C° 0 mm 1 mps 758 mmHg 84%
    03:00 +14°C° 0 mm 1 mps 759 mmHg 86%
    04:00 +14°C° 0 mm 1 mps 759 mmHg 87%
    05:00 +14°C° 0 mm 1 mps 759 mmHg 88%
    06:00 +15°C° 0 mm 1 mps 759 mmHg 81%
    07:00 +18°C° 0 mm 1 mps 759 mmHg 75%
    08:00 +20°C° 0 mm 1 mps 759 mmHg 69%
    09:00 +22°C° 0 mm 1 mps 759 mmHg 62%
    10:00 +24°C° 0 mm 1 mps 759 mmHg 56%
    11:00 +26°C° 0 mm 1 mps 759 mmHg 50%
    12:00 +26°C° 0 mm 1 mps 759 mmHg 48%
    13:00 +27°C° 0 mm 1 mps 759 mmHg 45%
    14:00 +28°C° 0 mm 1 mps 759 mmHg 42%
    15:00 +27°C° 0 mm 2 mps 758 mmHg 46%
    16:00 +27°C° 0 mm 2 mps 758 mmHg 49%
    17:00 +27°C° 0 mm 2 mps 758 mmHg 53%
    18:00 +25°C° 0 mm 2 mps 758 mmHg 60%
    19:00 +23°C° 0 mm 2 mps 758 mmHg 66%
    20:00 +20°C° 0 mm 2 mps 758 mmHg 73%
    21:00 +19°C° 0 mm 2 mps 759 mmHg 77%
    22:00 +18°C° 0 mm 2 mps 759 mmHg 82%
    23:00 +18°C° 0 mm 2 mps 759 mmHg 86%

    Tomorrow, 26 August, Monday

    Time Temperature Precipitation Wind Pressure Humidity
    00:00 +17°C° 0 mm 2 mps 759 mmHg 88%
    01:00 +17°C° 0 mm 2 mps 759 mmHg 89%
    02:00 +16°C° 0 mm 2 mps 759 mmHg 91%
    03:00 +16°C° 0 mm 2 mps 759 mmHg 92%
    04:00 +16°C° 0 mm 2 mps 759 mmHg 93%
    05:00 +16°C° 0 mm 2 mps 759 mmHg 94%
    06:00 +17°C° 0 mm 2 mps 759 mmHg 88%
    07:00 +19°C° 0 mm 2 mps 759 mmHg 83%
    08:00 +20°C° 0 mm 2 mps 759 mmHg 77%
    09:00 +23°C° 0 mm 2 mps 759 mmHg 70%
    10:00 +25°C° 0 mm 2 mps 759 mmHg 64%
    11:00 +26°C° 0 mm 2 mps 759 mmHg 57%
    12:00 +27°C° 0 mm 2 mps 759 mmHg 55%
    13:00 +27°C° 0 mm 2 mps 758 mmHg 53%
    14:00 +28°C° 0 mm 2 mps 758 mmHg 51%
    15:00 +28°C° 0 mm 2 mps 758 mmHg 53%
    16:00 +27°C° 0 mm 1 mps 757 mmHg 55%
    17:00 +27°C° 0 mm 1 mps 757 mmHg 57%
    18:00 +25°C° 0 mm 1 mps 757 mmHg 63%
    19:00 +23°C° 0 mm 1 mps 757 mmHg 69%
    20:00 +21°C° 0 mm 1 mps 757 mmHg 75%
    21:00 +20°C° 0 mm 1 mps 757 mmHg 78%
    22:00 +20°C° 0 mm 1 mps 757 mmHg 80%
    23:00 +18°C° 0 mm 2 mps 757 mmHg 82%

    Day after tomorrow, 27 August, Tuesday

    Time Temperature Precipitation Wind Pressure Humidity
    00:00 +19°C° 0 mm 1 mps 757 mmHg 84%
    01:00 +18°C° 0 mm 1 mps 757 mmHg 86%
    02:00 +18°C° 0 mm 1 mps 757 mmHg 87%
    03:00 +16°C° 0 mm 1 mps 757 mmHg 88%
    04:00 +16°C° 0 mm 1 mps 757 mmHg 88%
    05:00 +16°C° 0 mm 1 mps 757 mmHg 89%
    06:00 +18°C° 0 mm 1 mps 757 mmHg 83%
    07:00 +20°C° 0 mm 1 mps 757 mmHg 76%
    08:00 +22°C° 0 mm 1 mps 758 mmHg 70%
    09:00 +24°C° 0 mm 1 mps 758 mmHg 64%
    10:00 +25°C° 0 mm 1 mps 758 mmHg 59%
    11:00 +27°C° 0 mm 1 mps 758 mmHg 54%
    12:00 +28°C° 0 mm 1 mps 757 mmHg 51%
    13:00 +28°C° 0 mm 1 mps 757 mmHg 49%
    14:00 +29°C° 0 mm 1 mps 757 mmHg 47%
    15:00 +28°C° 0 mm 1 mps 757 mmHg 51%
    16:00 +27°C° 0 mm 2 mps 757 mmHg 54%
    17:00 +27°C° 0 mm 2 mps 756 mmHg 58%
    18:00 +25°C° 0 mm 2 mps 756 mmHg 63%
    19:00 +23°C° 0 mm 2 mps 756 mmHg 69%
    20:00 +21°C° 0 mm 1 mps 757 mmHg 74%
    21:00 +20°C° 0 mm 1 mps 757 mmHg 76%
    22:00 +20°C° 0 mm 1 mps 757 mmHg 78%
    23:00 +19°C° 0 mm 1 mps 757 mmHg 79%

    28 August, Wednesday

    Time Temperature Precipitation Wind Pressure Humidity
    00:00 +19°C° 0 mm 1 mps 757 mmHg 83%
    01:00 +18°C° 0 mm 1 mps 757 mmHg 86%
    02:00 +18°C° 0 mm 1 mps 757 mmHg 90%
    03:00 +18°C° 0 mm 1 mps 757 mmHg 91%
    04:00 +16°C° 0 mm 1 mps 757 mmHg 92%
    05:00 +16°C° 0 mm 1 mps 757 mmHg 93%
    06:00 +19°C° 0 mm 1 mps 757 mmHg 87%
    07:00 +20°C° 0 mm 1 mps 757 mmHg 81%
    08:00 +22°C° 0 mm 1 mps 757 mmHg 75%
    09:00 +23°C° 0 mm 2 mps 757 mmHg 68%
    10:00 +25°C° 0 mm 2 mps 757 mmHg 61%
    11:00 +26°C° 0 mm 2 mps 757 mmHg 55%
    12:00 +27°C° 0 mm 2 mps 757 mmHg 52%
    13:00 +27°C° 0 mm 3 mps 757 mmHg 50%
    14:00 +27°C° 0 mm 3 mps 756 mmHg 48%
    15:00 +27°C° 0 mm 3 mps 756 mmHg 50%
    16:00 +26°C° 0 mm 3 mps 756 mmHg 51%
    17:00 +26°C° 0 mm 3 mps 756 mmHg 53%
    18:00 +22°C° 0 mm 3 mps 756 mmHg 59%
    19:00 +20°C° 0 mm 3 mps 756 mmHg 65%
    20:00 +18°C° 0 mm 2 mps 756 mmHg 70%
    21:00 +17°C° 0 mm 3 mps 756 mmHg 73%
    22:00 +17°C° 0 mm 3 mps 756 mmHg 75%
    23:00 +16°C° 0 mm 3 mps 757 mmHg 77%

    29 August, Thursday

    Time Temperature Precipitation Wind Pressure Humidity
    00:00 +14°C° 0 mm 3 mps 757 mmHg 81%
    01:00 +15°C° 0 mm 2 mps 757 mmHg 84%
    02:00 +14°C° 0 mm 2 mps 757 mmHg 87%
    03:00 +14°C° 0 mm 2 mps 757 mmHg 88%
    04:00 +13°C° 0 mm 2 mps 757 mmHg 88%
    05:00 +13°C° 0 mm 2 mps 757 mmHg 89%
    06:00 +13°C° 0 mm 3 mps 757 mmHg 83%
    07:00 +14°C° 0 mm 3 mps 757 mmHg 77%
    08:00 +16°C° 0 mm 3 mps 757 mmHg 71%
    09:00 +18°C° 0 mm 3 mps 757 mmHg 66%
    10:00 +20°C° 0 mm 4 mps 757 mmHg 61%
    11:00 +21°C° 0 mm 4 mps 757 mmHg 56%
    12:00 +22°C° 0 mm 4 mps 757 mmHg 54%
    13:00 +23°C° 0 mm 4 mps 756 mmHg 51%
    14:00 +23°C° 0 mm 4 mps 756 mmHg 48%
    15:00 +23°C° 0 mm 4 mps 756 mmHg 49%
    16:00 +22°C° 0 mm 3 mps 756 mmHg 50%
    17:00 +22°C° 0 mm 3 mps 756 mmHg 51%
    18:00 +20°C° 0 mm 3 mps 756 mmHg 53%
    19:00 +18°C° 0 mm 3 mps 756 mmHg 55%
    20:00 +16°C° 0 mm 3 mps 756 mmHg 57%
    21:00 +14°C° 0 mm 3 mps 756 mmHg 59%
    22:00 +13°C° 0 mm 3 mps 756 mmHg 61%
    23:00 +13°C° 0 mm 3 mps 756 mmHg 63%

    30 August, Friday

    Time Temperature Precipitation Wind Pressure Humidity
    00:00 +12°C° 0 mm 3 mps 756 mmHg 66%
    01:00 +11°C° 0 mm 3 mps 756 mmHg 68%
    02:00 +11°C° 0 mm 3 mps 756 mmHg 71%
    03:00 +10°C° 0 mm 3 mps 756 mmHg 73%
    04:00 +10°C° 0 mm 3 mps 756 mmHg 75%
    05:00 +10°C° 0 mm 3 mps 756 mmHg 77%
    06:00 +11°C° 0 mm 3 mps 756 mmHg 72%
    07:00 +13°C° 0 mm 3 mps 756 mmHg 66%
    08:00 +16°C° 0 mm 3 mps 756 mmHg 61%
    09:00 +18°C° 0 mm 3 mps 756 mmHg 54%
    10:00 +20°C° 0 mm 3 mps 756 mmHg 48%
    11:00 +22°C° 0 mm 4 mps 756 mmHg 42%
    12:00 +23°C° 0 mm 4 mps 756 mmHg 40%
    13:00 +24°C° 0 mm 3 mps 756 mmHg 39%
    14:00 +25°C° 0 mm 3 mps 756 mmHg 38%
    15:00 +25°C° 0 mm 3 mps 755 mmHg 41%
    16:00 +24°C° 0 mm 3 mps 755 mmHg 45%
    17:00 +24°C° 0 mm 2 mps 755 mmHg 48%
    18:00 +21°C° 0 mm 2 mps 755 mmHg 53%
    19:00 +19°C° 0 mm 2 mps 755 mmHg 58%
    20:00 +16°C° 0 mm 2 mps 755 mmHg 64%
    21:00 +16°C° 0 mm 2 mps 755 mmHg 65%
    22:00 +15°C° 0 mm 2 mps 755 mmHg 67%
    23:00 +14°C° 0 mm 2 mps 755 mmHg 68%
    Show more